map of KEQY home
KEQY - Airport
Location
City:  Monroe, North Carolina, United States
Name:Charlotte-Monroe Executive Airport
ICAO:KEQY
FAA LID:EQY

Details
Type:Airport (Airfield)
Use:Public/Civil
Latitude:3501'03"N (35.017420)
Longitude:8037'19"W (-80.622050)
Datum:WGS 1984
Elevation:682 ft (208 m)
Variation:7.92W (WMM2015 magnetic declination)
-0.06 annual change
Runways:1
Longest:7001 × 100 ft (2134 × 30.5 m), paved

Time
Time Zone:UTC-5 (DST-4)
Local Time:

Weather
METAR:KEQY 181953Z AUTO 00000KT 10SM SCT060 16/06 A3021 RMK AO2 SLP245 T01560056

Related Locations
Nearby:
Farthest:YAUG: 11545 mi / 18580 km
Augusta [Augusta Airport], WA, AU

Find:

   beyond  
but within

Other Information
Maps:
NOTAMs:
Links:
Sources:

  
  • flag of United States
  • flag of North Carolina
  

Sectional Chart

Flight Planning
at skyvector.com

Satellite Image

Google Maps Satellite view

 

Copyright © 2004-2018 Karl L. Swartz. All rights reserved.
The Great Circle Mapper name and logo are trademarks of the Great Circle Mapper.
All other trademarks mentioned herein belong to their respective owners.
Please see credits for attibutions and further copyright information.

  Follow gcmap on Facebook Follow gcmap on Twitter Follow gcmap on Google+ GCmap on LinkedIn

hCard Microformat

Geo Microformat